Tracking 29892 objects as of 21-Nov-2024
HD Live streaming from Space Station
objects crossing your sky now

STARLINK-30810

Track STARLINK-30810 now!
10-day predictions
STARLINK-30810 is classified as:


NORAD ID: 58178
Int'l Code: 2023-167D
Perigee: 565.4 km
Apogee: 567.0 km
Inclination: 43.0 °
Period: 95.8 minutes
Semi major axis: 6937 km
RCS: Unknown
Launch date: October 30, 2023
Source: United States (US)
Launch site: AIR FORCE EASTERN TEST RANGE (AFETR)
Your satellite tracking list
Your tracking list is empty




NASA's NSSDC Master Catalog

Two Line Element Set (TLE):
1 58178U 23167D   24325.92718497  .00000893  00000-0  81188-4 0  9991
2 58178  43.0008 200.6988 0001219 266.0291  94.0412 15.02541798 59633
Source of the keplerian elements: AFSPC